StationID,Date,MaxTemp,MinTemp,Precipitation,Snowfall,SnowDepth
"USC00502217","1937-08-01",60.08,42.98,3.00,0.00,
"USC00502217","1937-08-02",59.00,44.96,0.00,0.00,
"USC00502217","1937-08-03",50.00,41.00,0.00,0.00,
"USC00502217","1937-08-04",53.06,41.00,0.00,0.00,
"USC00502217","1937-08-05",53.96,41.00,5.00,0.00,
"USC00502217","1937-08-06",51.08,24.08,5.00,0.00,
"USC00502217","1937-08-07",51.98,35.06,23.00,0.00,
"USC00502217","1937-08-08",60.98,39.02,0.00,0.00,
"USC00502217","1937-08-09",64.94,26.06,0.00,0.00,
"USC00502217","1937-08-10",68.00,33.98,0.00,0.00,
"USC00502217","1937-08-11",69.98,33.08,0.00,0.00,
"USC00502217","1937-08-12",71.96,32.00,0.00,0.00,
"USC00502217","1937-08-13",60.08,44.96,0.00,0.00,
"USC00502217","1937-08-14",57.92,44.06,28.00,0.00,
"USC00502217","1937-08-15",55.94,46.94,79.00,0.00,
"USC00502217","1937-08-16",55.04,46.94,8.00,0.00,
"USC00502217","1937-08-17",57.02,46.94,0.00,0.00,
"USC00502217","1937-08-18",55.94,46.94,25.00,0.00,
"USC00502217","1937-08-19",60.08,44.96,0.00,0.00,
"USC00502217","1937-08-20",53.96,46.04,15.00,0.00,
"USC00502217","1937-08-21",53.06,46.94,94.00,0.00,
"USC00502217","1937-08-22",55.04,46.04,23.00,0.00,
"USC00502217","1937-08-23",51.08,44.96,0.00,0.00,
"USC00502217","1937-08-24",53.06,39.02,0.00,0.00,
"USC00502217","1937-08-25",53.96,48.92,0.00,0.00,
"USC00502217","1937-08-26",51.98,42.08,53.00,0.00,
"USC00502217","1937-08-27",51.98,44.06,38.00,0.00,
"USC00502217","1937-08-28",60.08,39.92,0.00,0.00,
"USC00502217","1937-08-29",55.04,39.02,142.00,0.00,
"USC00502217","1937-08-30",64.94,39.02,0.00,0.00,
"USC00502217","1937-08-31",60.08,44.06,5.00,0.00,
"USC00502217","1937-09-01",64.94,42.98,51.00,0.00,
"USC00502217","1937-09-02",66.02,30.02,229.00,0.00,
"USC00502217","1937-09-03",59.00,44.06,203.00,0.00,
"USC00502217","1937-09-04",68.00,50.00,132.00,0.00,
"USC00502217","1937-09-05",64.04,42.08,89.00,0.00,
"USC00502217","1937-09-06",51.98,42.08,114.00,0.00,
"USC00502217","1937-09-07",50.00,44.96,5.00,0.00,
"USC00502217","1937-09-08",60.08,39.92,0.00,0.00,
"USC00502217","1937-09-09",62.06,35.06,30.00,0.00,
"USC00502217","1937-09-10",66.92,37.04,0.00,0.00,
"USC00502217","1937-09-11",46.94,41.00,71.00,0.00,
"USC00502217","1937-09-12",53.96,42.08,61.00,0.00,
"USC00502217","1937-09-13",55.04,42.98,8.00,0.00,
"USC00502217","1937-09-14",59.00,42.98,0.00,0.00,
"USC00502217","1937-09-15",57.02,35.96,0.00,0.00,
"USC00502217","1937-09-16",51.08,32.00,0.00,0.00,
"USC00502217","1937-09-17",44.96,33.08,0.00,0.00,
"USC00502217","1937-09-18",46.94,23.00,0.00,0.00,
"USC00502217","1937-09-19",42.08,17.96,23.00,0.00,
"USC00502217","1937-09-20",46.04,17.96,0.00,0.00,
"USC00502217","1937-09-21",44.96,26.96,0.00,0.00,
"USC00502217","1937-09-22",50.00,33.98,0.00,0.00,
"USC00502217","1937-09-23",51.08,30.92,0.00,0.00,
"USC00502217","1937-09-24",46.04,35.96,94.00,0.00,
"USC00502217","1937-09-25",42.98,35.06,234.00,0.00,
"USC00502217","1937-09-26",46.04,33.98,3.00,0.00,
"USC00502217","1937-09-27",41.00,24.98,0.00,0.00,
"USC00502217","1937-09-28",44.96,33.08,8.00,0.00,
"USC00502217","1937-09-29",42.08,35.06,0.00,0.00,
"USC00502217","1937-09-30",44.96,37.94,8.00,0.00,
"USC00502217","1937-10-01",46.94,35.96,0.00,0.00,
"USC00502217","1937-10-02",46.94,37.04,97.00,0.00,
"USC00502217","1937-10-03",46.94,44.96,25.00,0.00,
"USC00502217","1937-10-04",46.04,35.96,3.00,0.00,
"USC00502217","1937-10-05",42.08,30.02,0.00,0.00,
"USC00502217","1937-10-06",42.98,24.98,0.00,0.00,
"USC00502217","1937-10-07",42.08,26.96,0.00,0.00,
"USC00502217","1937-10-08",42.98,26.06,0.00,0.00,
"USC00502217","1937-10-09",50.00,17.96,0.00,0.00,
"USC00502217","1937-10-10",46.04,17.06,0.00,0.00,
"USC00502217","1937-10-11",41.00,19.04,0.00,0.00,
"USC00502217","1937-10-12",48.92,35.96,0.00,0.00,
"USC00502217","1937-10-13",42.98,32.00,0.00,0.00,
"USC00502217","1937-10-14",37.04,30.92,41.00,23.00,
"USC00502217","1937-10-15",42.08,28.94,0.00,0.00,
"USC00502217","1937-10-16",37.04,28.04,0.00,0.00,
"USC00502217","1937-10-17",35.06,15.98,0.00,0.00,
"USC00502217","1937-10-18",35.06,21.92,0.00,0.00,
"USC00502217","1937-10-19",33.08,15.98,0.00,0.00,
"USC00502217","1937-10-20",37.04,17.06,0.00,0.00,
"USC00502217","1937-10-21",35.06,17.96,0.00,0.00,
"USC00502217","1937-10-22",33.98,24.08,0.00,0.00,
"USC00502217","1937-10-23",35.96,24.98,0.00,0.00,
"USC00502217","1937-10-24",39.92,24.98,0.00,0.00,
"USC00502217","1937-10-25",39.92,15.98,0.00,0.00,
"USC00502217","1937-10-26",33.08,15.08,0.00,0.00,
"USC00502217","1937-10-27",30.92,12.92,0.00,0.00,
"USC00502217","1937-10-28",30.92,12.92,0.00,0.00,
"USC00502217","1937-10-29",28.94,12.92,0.00,0.00,
"USC00502217","1937-10-30",28.04,12.92,0.00,0.00,
"USC00502217","1937-10-31",,,0.00,0.00,
"USC00502217","1937-11-01",37.04,1.94,0.00,0.00,
"USC00502217","1937-11-02",33.98,21.92,0.00,0.00,
"USC00502217","1937-11-03",33.98,28.04,0.00,0.00,0.00
"USC00502217","1937-11-04",33.08,21.92,0.00,0.00,
"USC00502217","1937-11-05",,,0.00,0.00,
"USC00502217","1937-11-06",30.92,28.04,38.00,51.00,51.00
"USC00502217","1937-11-07",30.92,10.04,20.00,10.00,51.00
"USC00502217","1937-11-08",35.96,12.02,48.00,51.00,76.00
"USC00502217","1937-11-09",35.96,32.00,99.00,0.00,51.00
"USC00502217","1937-11-10",39.92,33.08,89.00,0.00,
"USC00502217","1937-11-11",35.96,32.00,25.00,0.00,0.00
"USC00502217","1937-11-12",37.04,30.02,28.00,0.00,
"USC00502217","1937-11-13",39.02,32.00,38.00,0.00,
"USC00502217","1937-11-14",37.04,30.92,20.00,0.00,25.00
"USC00502217","1937-11-15",33.98,30.02,36.00,43.00,76.00
"USC00502217","1937-11-16",32.00,15.08,0.00,0.00,76.00
"USC00502217","1937-11-17",19.04,1.94,0.00,0.00,
"USC00502217","1937-11-18",28.94,8.06,0.00,0.00,
"USC00502217","1937-11-19",26.06,6.98,0.00,0.00,
"USC00502217","1937-11-20",17.96,-18.04,0.00,0.00,
"USC00502217","1937-11-21",10.94,-18.94,0.00,0.00,
"USC00502217","1937-11-22",15.08,-7.96,0.00,0.00,
"USC00502217","1937-11-23",24.08,-2.02,0.00,0.00,
"USC00502217","1937-11-24",26.96,5.00,0.00,0.00,
"USC00502217","1937-11-25",24.08,1.04,0.00,0.00,
"USC00502217","1937-11-26",19.04,6.98,0.00,0.00,
"USC00502217","1937-11-27",8.96,-11.92,0.00,0.00,
"USC00502217","1937-11-28",10.94,-14.98,0.00,0.00,
"USC00502217","1937-11-29",17.96,-14.08,0.00,0.00,
"USC00502217","1937-11-30",15.08,3.92,0.00,0.00,
"USC00502217","1937-12-01",15.98,-20.02,0.00,0.00,
"USC00502217","1937-12-02",12.92,-22.00,0.00,0.00,
"USC00502217","1937-12-03",6.08,-20.02,0.00,0.00,
"USC00502217","1937-12-04",5.00,-4.00,0.00,0.00,
"USC00502217","1937-12-05",14.00,-0.94,0.00,0.00,
"USC00502217","1937-12-06",28.94,6.98,25.00,33.00,76.00
"USC00502217","1937-12-07",33.08,24.08,0.00,0.00,76.00
"USC00502217","1937-12-08",32.00,24.08,0.00,0.00,
"USC00502217","1937-12-09",30.02,8.06,0.00,0.00,
"USC00502217","1937-12-10",15.08,1.04,0.00,0.00,
"USC00502217","1937-12-11",15.08,-2.02,0.00,0.00,
"USC00502217","1937-12-12",24.98,1.04,0.00,0.00,
"USC00502217","1937-12-13",24.08,10.04,0.00,0.00,
"USC00502217","1937-12-14",12.92,1.04,0.00,0.00,
"USC00502217","1937-12-15",10.94,-0.04,0.00,0.00,25.00
"USC00502217","1937-12-16",17.06,10.04,30.00,76.00,102.00
"USC00502217","1937-12-17",15.98,8.06,3.00,8.00,102.00
"USC00502217","1937-12-18",17.96,6.08,0.00,0.00,
"USC00502217","1937-12-19",14.00,3.92,0.00,0.00,
"USC00502217","1937-12-20",12.92,-2.92,8.00,15.00,127.00
"USC00502217","1937-12-21",33.08,12.92,0.00,0.00,
"USC00502217","1937-12-22",30.92,12.02,0.00,0.00,
"USC00502217","1937-12-23",17.96,1.94,0.00,0.00,
"USC00502217","1937-12-24",12.92,-4.00,0.00,0.00,
"USC00502217","1937-12-25",12.92,-5.98,0.00,0.00,
"USC00502217","1937-12-26",24.98,,0.00,0.00,
"USC00502217","1937-12-27",19.94,-5.08,0.00,0.00,
"USC00502217","1937-12-28",-4.00,-20.92,0.00,0.00,
"USC00502217","1937-12-29",-7.06,-23.08,0.00,0.00,
"USC00502217","1937-12-30",1.04,-23.98,0.00,0.00,
"USC00502217","1937-12-31",-0.94,-11.02,0.00,0.00,
"USC00502217","1938-01-01",5.00,-13.00,0.00,0.00,
"USC00502217","1938-01-02",3.02,-16.06,0.00,0.00,
"USC00502217","1938-01-03",-7.96,-25.96,0.00,0.00,
"USC00502217","1938-01-04",-9.94,-34.06,0.00,0.00,
"USC00502217","1938-01-05",-4.00,-34.06,0.00,0.00,
"USC00502217","1938-01-06",-2.92,-13.00,41.00,66.00,51.00
"USC00502217","1938-01-07",-4.00,-23.98,0.00,0.00,
"USC00502217","1938-01-08",-7.06,-16.06,0.00,0.00,
"USC00502217","1938-01-09",-11.02,-31.00,0.00,0.00,
"USC00502217","1938-01-10",-5.98,-32.08,0.00,0.00,
"USC00502217","1938-01-11",6.98,-9.04,0.00,0.00,
"USC00502217","1938-01-12",6.98,,0.00,0.00,
"USC00502217","1938-01-13",8.06,-9.04,0.00,0.00,
"USC00502217","1938-01-14",-5.98,-18.04,0.00,0.00,
"USC00502217","1938-01-15",-0.94,-18.94,0.00,0.00,
"USC00502217","1938-01-16",3.02,-9.94,0.00,0.00,
"USC00502217","1938-01-17",1.04,-11.92,0.00,0.00,
"USC00502217","1938-01-18",-7.96,-14.98,0.00,0.00,
"USC00502217","1938-01-19",-5.08,-13.00,0.00,0.00,
"USC00502217","1938-01-20",-4.00,-14.98,0.00,0.00,
"USC00502217","1938-01-21",,,0.00,0.00,
"USC00502217","1938-01-22",,,0.00,0.00,
"USC00502217","1938-01-23",6.98,-23.08,0.00,0.00,
"USC00502217","1938-01-24",19.04,-18.94,0.00,0.00,
"USC00502217","1938-01-25",19.04,-16.96,0.00,0.00,
"USC00502217","1938-01-26",15.08,-22.00,0.00,0.00,
"USC00502217","1938-01-27",17.96,3.92,0.00,0.00,
"USC00502217","1938-01-28",24.08,15.98,3.00,5.00,
"USC00502217","1938-01-29",24.08,10.94,64.00,76.00,102.00
"USC00502217","1938-01-30",24.08,1.04,0.00,0.00,
"USC00502217","1938-01-31",14.00,-14.98,0.00,0.00,
"USC00502217","1938-02-01",17.96,-11.92,0.00,0.00,
"USC00502217","1938-02-02",8.06,-4.00,0.00,0.00,
"USC00502217","1938-02-03",3.92,-9.04,18.00,18.00,203.00
"USC00502217","1938-02-04",-7.96,-32.98,0.00,0.00,
"USC00502217","1938-02-05",-7.06,-32.08,0.00,0.00,
"USC00502217","1938-02-06",1.94,-14.08,0.00,0.00,
"USC00502217","1938-02-07",10.04,-0.94,0.00,0.00,
"USC00502217","1938-02-08",10.04,1.04,0.00,0.00,
"USC00502217","1938-02-09",21.02,1.04,20.00,51.00,
"USC00502217","1938-02-10",21.92,-0.94,0.00,0.00,
"USC00502217","1938-02-11",21.92,-2.02,0.00,0.00,
"USC00502217","1938-02-12",30.02,3.92,0.00,0.00,
"USC00502217","1938-02-13",21.92,5.00,0.00,0.00,
"USC00502217","1938-02-14",41.00,5.00,0.00,0.00,
"USC00502217","1938-02-15",39.02,8.06,0.00,0.00,
"USC00502217","1938-02-16",39.02,8.06,0.00,0.00,
"USC00502217","1938-02-17",37.94,12.02,0.00,0.00,
"USC00502217","1938-02-18",21.92,-0.04,0.00,0.00,
"USC00502217","1938-02-19",17.06,-11.02,0.00,0.00,
"USC00502217","1938-02-20",19.94,-2.02,0.00,0.00,
"USC00502217","1938-02-21",14.00,-2.92,0.00,0.00,
"USC00502217","1938-02-22",1.94,-7.96,0.00,0.00,
"USC00502217","1938-02-23",-4.00,-14.98,0.00,0.00,
"USC00502217","1938-02-24",-9.04,-23.98,0.00,0.00,
"USC00502217","1938-02-25",-7.96,-32.08,0.00,0.00,
"USC00502217","1938-02-26",3.92,-41.08,0.00,0.00,
"USC00502217","1938-02-27",3.92,-34.96,0.00,0.00,
"USC00502217","1938-02-28",35.06,3.92,79.00,56.00,
"USC00502217","1938-03-01",41.00,28.04,25.00,0.00,
"USC00502217","1938-03-02",33.98,17.96,0.00,0.00,
"USC00502217","1938-03-03",37.04,15.98,0.00,0.00,
"USC00502217","1938-03-04",35.06,8.06,0.00,0.00,
"USC00502217","1938-03-05",39.02,24.98,5.00,13.00,
"USC00502217","1938-03-06",35.96,17.06,8.00,0.00,
"USC00502217","1938-03-07",37.04,30.02,3.00,0.00,
"USC00502217","1938-03-08",41.00,30.92,0.00,0.00,
"USC00502217","1938-03-09",37.04,26.06,0.00,0.00,
"USC00502217","1938-03-10",28.94,21.92,5.00,8.00,
"USC00502217","1938-03-11",24.98,12.02,30.00,58.00,
"USC00502217","1938-03-12",12.92,6.08,0.00,0.00,
"USC00502217","1938-03-13",15.98,8.06,0.00,0.00,
"USC00502217","1938-03-14",10.94,-2.92,0.00,0.00,
"USC00502217","1938-03-15",12.92,-5.98,5.00,25.00,
"USC00502217","1938-03-16",8.96,,0.00,0.00,
"USC00502217","1938-03-17",3.92,-4.00,0.00,0.00,
"USC00502217","1938-03-18",5.00,-4.00,3.00,13.00,
"USC00502217","1938-03-19",-0.04,-7.06,3.00,8.00,
"USC00502217","1938-03-20",-5.08,-27.94,0.00,0.00,
"USC00502217","1938-03-21",-5.08,-16.06,0.00,0.00,
"USC00502217","1938-03-22",-2.92,-23.08,0.00,0.00,
"USC00502217","1938-03-23",-0.94,-27.04,0.00,0.00,
"USC00502217","1938-03-24",-5.98,-29.92,0.00,3.00,
"USC00502217","1938-03-25",-9.04,-34.06,0.00,0.00,
"USC00502217","1938-03-26",-7.96,-31.00,0.00,0.00,
"USC00502217","1938-03-27",1.94,-34.06,0.00,0.00,
"USC00502217","1938-03-28",23.00,1.04,89.00,203.00,
"USC00502217","1938-03-29",30.92,23.00,51.00,114.00,
"USC00502217","1938-03-30",35.06,17.96,0.00,0.00,
"USC00502217","1938-03-31",26.06,1.94,3.00,13.00,
"USC00502217","1938-04-01",39.02,23.00,41.00,0.00,
"USC00502217","1938-04-02",42.98,35.06,10.00,0.00,
"USC00502217","1938-04-03",48.02,15.08,5.00,0.00,
"USC00502217","1938-04-04",44.96,30.92,0.00,0.00,
"USC00502217","1938-04-05",37.04,21.02,0.00,0.00,
"USC00502217","1938-04-06",42.08,26.96,0.00,0.00,
"USC00502217","1938-04-07",39.92,28.94,0.00,0.00,
"USC00502217","1938-04-08",32.00,17.96,0.00,0.00,
"USC00502217","1938-04-09",28.94,10.04,3.00,5.00,
"USC00502217","1938-04-10",33.98,21.02,0.00,0.00,
"USC00502217","1938-04-11",39.02,28.04,10.00,10.00,
"USC00502217","1938-04-12",44.06,30.92,3.00,0.00,
"USC00502217","1938-04-13",44.96,33.08,0.00,0.00,
"USC00502217","1938-04-14",37.04,24.08,0.00,0.00,
"USC00502217","1938-04-15",32.00,21.92,0.00,0.00,
"USC00502217","1938-04-16",30.92,14.00,0.00,0.00,
"USC00502217","1938-04-17",35.06,14.00,0.00,0.00,
"USC00502217","1938-04-18",28.04,6.08,0.00,0.00,
"USC00502217","1938-04-19",26.96,6.08,0.00,0.00,
"USC00502217","1938-04-20",39.02,17.06,0.00,0.00,
"USC00502217","1938-04-21",42.08,30.02,0.00,0.00,
"USC00502217","1938-04-22",44.06,28.94,5.00,5.00,
"USC00502217","1938-04-23",51.98,28.94,0.00,0.00,
"USC00502217","1938-04-24",50.00,37.04,0.00,0.00,
"USC00502217","1938-04-25",46.04,32.00,3.00,0.00,
"USC00502217","1938-04-26",39.92,30.92,10.00,0.00,
"USC00502217","1938-04-27",44.96,30.02,0.00,0.00,
"USC00502217","1938-04-28",44.06,32.00,0.00,0.00,
"USC00502217","1938-04-29",35.06,17.96,0.00,0.00,
"USC00502217","1938-04-30",42.08,19.04,0.00,0.00,
"USC00502217","1938-05-01",42.98,26.06,5.00,0.00,
"USC00502217","1938-05-02",48.02,26.96,0.00,0.00,
"USC00502217","1938-05-03",46.94,24.08,0.00,0.00,
"USC00502217","1938-05-04",41.00,17.06,0.00,0.00,
"USC00502217","1938-05-05",44.06,21.92,0.00,0.00,
"USC00502217","1938-05-06",46.04,26.96,0.00,0.00,
"USC00502217","1938-05-07",46.94,17.96,0.00,0.00,
"USC00502217","1938-05-08",51.08,19.04,0.00,0.00,
"USC00502217","1938-05-09",42.98,19.94,0.00,0.00,
"USC00502217","1938-05-10",39.92,26.96,0.00,0.00,
"USC00502217","1938-05-11",46.04,24.98,0.00,0.00,
"USC00502217","1938-05-12",46.04,26.06,0.00,0.00,
"USC00502217","1938-05-13",37.94,24.98,0.00,0.00,
"USC00502217","1938-05-14",33.98,26.96,0.00,0.00,
"USC00502217","1938-05-15",39.92,19.04,0.00,0.00,
"USC00502217","1938-05-16",51.08,17.06,3.00,0.00,
"USC00502217","1938-05-17",51.98,33.08,3.00,0.00,
"USC00502217","1938-05-18",46.94,37.94,28.00,0.00,
"USC00502217","1938-05-19",46.04,33.98,25.00,0.00,
"USC00502217","1938-05-20",51.08,30.02,8.00,0.00,
"USC00502217","1938-05-21",59.00,35.96,3.00,0.00,
"USC00502217","1938-05-22",55.94,41.00,3.00,0.00,
"USC00502217","1938-05-23",50.00,35.96,20.00,0.00,
"USC00502217","1938-05-24",51.98,37.04,15.00,0.00,
"USC00502217","1938-05-25",46.04,33.98,13.00,0.00,
"USC00502217","1938-05-26",41.00,33.08,13.00,0.00,
"USC00502217","1938-05-27",51.08,30.92,3.00,0.00,
"USC00502217","1938-05-28",57.02,39.92,20.00,0.00,
"USC00502217","1938-05-29",64.94,39.92,25.00,0.00,
"USC00502217","1938-05-30",60.08,39.92,0.00,0.00,
"USC00502217","1938-05-31",57.02,33.08,0.00,0.00,
"USC00502217","1938-06-01",55.04,30.92,0.00,0.00,
"USC00502217","1938-06-02",51.98,30.02,0.00,0.00,
"USC00502217","1938-06-03",51.98,37.94,51.00,0.00,
"USC00502217","1938-06-04",51.08,37.04,0.00,0.00,
"USC00502217","1938-06-05",60.08,37.04,10.00,0.00,
"USC00502217","1938-06-06",64.94,35.96,0.00,0.00,
"USC00502217","1938-06-07",59.00,48.02,10.00,0.00,
"USC00502217","1938-06-08",64.94,,0.00,0.00,
"USC00502217","1938-06-09",60.98,41.00,0.00,0.00,
"USC00502217","1938-06-10",66.02,33.08,0.00,0.00,
"USC00502217","1938-06-11",68.00,30.02,0.00,0.00,
"USC00502217","1938-06-12",73.94,35.06,0.00,0.00,
"USC00502217","1938-06-13",69.98,35.96,0.00,0.00,
"USC00502217","1938-06-14",62.96,37.04,0.00,0.00,
"USC00502217","1938-06-15",62.06,32.00,0.00,0.00,
"USC00502217","1938-06-16",60.98,30.02,0.00,0.00,
"USC00502217","1938-06-17",53.96,42.08,0.00,0.00,
"USC00502217","1938-06-18",44.96,33.08,0.00,0.00,
"USC00502217","1938-06-19",42.98,28.04,0.00,0.00,
"USC00502217","1938-06-20",53.96,26.06,0.00,0.00,
"USC00502217","1938-06-21",48.02,39.92,64.00,0.00,
"USC00502217","1938-06-22",60.08,42.08,10.00,0.00,
"USC00502217","1938-06-23",64.04,35.06,0.00,0.00,
"USC00502217","1938-06-24",75.02,37.94,0.00,0.00,
"USC00502217","1938-06-25",75.02,35.06,0.00,0.00,
"USC00502217","1938-06-26",77.00,42.98,0.00,0.00,
"USC00502217","1938-06-27",78.08,44.96,8.00,0.00,
"USC00502217","1938-06-28",71.96,55.04,0.00,0.00,
"USC00502217","1938-06-29",69.08,55.04,0.00,0.00,
"USC00502217","1938-06-30",59.00,32.00,0.00,0.00,
"USC00502217","1938-07-01",53.06,37.04,15.00,0.00,
"USC00502217","1938-07-02",60.98,41.00,0.00,0.00,
"USC00502217","1938-07-03",64.04,44.06,38.00,0.00,
"USC00502217","1938-07-04",62.06,33.08,0.00,0.00,
"USC00502217","1938-07-05",50.00,33.08,3.00,0.00,
"USC00502217","1938-07-06",48.92,44.96,53.00,0.00,
"USC00502217","1938-07-07",53.96,44.96,20.00,0.00,
"USC00502217","1938-07-08",51.08,44.96,20.00,0.00,
"USC00502217","1938-07-09",55.94,37.04,3.00,0.00,
"USC00502217","1938-07-10",62.96,46.94,0.00,0.00,
"USC00502217","1938-07-11",57.02,46.94,0.00,0.00,
"USC00502217","1938-07-12",59.00,44.06,0.00,0.00,
"USC00502217","1938-07-13",64.04,46.94,0.00,0.00,
"USC00502217","1938-07-14",60.98,44.06,0.00,0.00,
"USC00502217","1938-07-15",57.02,44.06,10.00,0.00,
"USC00502217","1938-07-16",51.08,42.98,3.00,0.00,
"USC00502217","1938-07-17",53.96,44.96,3.00,0.00,
"USC00502217","1938-07-18",51.08,44.06,61.00,0.00,
"USC00502217","1938-07-19",53.06,46.94,15.00,0.00,
"USC00502217","1938-07-20",62.06,42.08,0.00,0.00,
"USC00502217","1938-07-21",64.94,32.00,0.00,0.00,
"USC00502217","1938-07-22",62.06,30.92,0.00,0.00,
"USC00502217","1938-07-23",62.06,37.04,0.00,0.00,
"USC00502217","1938-07-24",62.06,39.92,5.00,0.00,
"USC00502217","1938-07-25",66.02,48.02,0.00,0.00,
"USC00502217","1938-07-26",71.96,51.08,3.00,0.00,
"USC00502217","1938-07-27",75.02,50.00,0.00,0.00,
"USC00502217","1938-07-28",71.96,42.08,0.00,0.00,
"USC00502217","1938-07-29",68.00,46.04,0.00,0.00,
"USC00502217","1938-07-30",60.08,50.00,119.00,0.00,
"USC00502217","1938-07-31",55.94,46.04,97.00,0.00,
"USC00502217","1938-08-01",55.04,39.02,0.00,0.00,
"USC00502217","1938-08-02",57.92,35.96,3.00,0.00,
"USC00502217","1938-08-03",46.94,42.98,15.00,0.00,
"USC00502217","1938-08-04",51.98,44.96,0.00,0.00,
"USC00502217","1938-08-05",55.04,46.04,8.00,0.00,
"USC00502217","1938-08-06",60.98,46.04,0.00,0.00,
"USC00502217","1938-08-07",66.92,57.02,0.00,0.00,
"USC00502217","1938-08-08",62.06,51.08,51.00,0.00,
"USC00502217","1938-08-09",57.92,48.92,86.00,0.00,
"USC00502217","1938-08-10",57.02,50.00,81.00,0.00,
"USC00502217","1938-08-11",55.04,51.08,157.00,0.00,
"USC00502217","1938-08-12",66.02,48.02,0.00,0.00,
"USC00502217","1938-08-13",64.04,46.04,3.00,0.00,
"USC00502217","1938-08-14",60.08,37.94,0.00,0.00,
"USC00502217","1938-08-15",60.08,44.96,51.00,0.00,
"USC00502217","1938-08-16",57.02,48.92,175.00,0.00,
"USC00502217","1938-08-17",55.04,48.92,107.00,0.00,
"USC00502217","1938-08-18",59.00,41.00,23.00,0.00,
"USC00502217","1938-08-19",55.04,44.06,0.00,0.00,
"USC00502217","1938-08-20",53.06,42.98,64.00,0.00,
"USC00502217","1938-08-21",53.06,48.02,277.00,0.00,
"USC00502217","1938-08-22",53.06,46.94,8.00,0.00,
"USC00502217","1938-08-23",53.06,42.98,33.00,0.00,
"USC00502217","1938-08-24",53.06,39.92,8.00,0.00,
"USC00502217","1938-08-25",51.08,39.02,5.00,0.00,
"USC00502217","1938-08-26",51.08,44.96,94.00,0.00,
"USC00502217","1938-08-27",53.06,42.98,84.00,0.00,
"USC00502217","1938-08-28",55.04,48.92,145.00,0.00,
"USC00502217","1938-08-29",51.98,44.96,64.00,0.00,
"USC00502217","1938-08-30",57.92,48.02,76.00,0.00,
"USC00502217","1938-08-31",53.96,32.00,107.00,0.00,
"USC00502217","1938-09-01",53.06,44.06,56.00,0.00,
"USC00502217","1938-09-02",50.00,30.02,0.00,0.00,
"USC00502217","1938-09-03",51.08,33.08,0.00,0.00,
"USC00502217","1938-09-04",51.08,21.92,0.00,0.00,
"USC00502217","1938-09-05",51.08,28.04,0.00,0.00,
"USC00502217","1938-09-06",51.08,21.02,0.00,0.00,
"USC00502217","1938-09-07",57.02,33.98,0.00,0.00,
"USC00502217","1938-09-08",51.08,37.94,30.00,0.00,
"USC00502217","1938-09-09",48.92,39.02,66.00,0.00,
"USC00502217","1938-09-10",48.92,37.94,38.00,0.00,
"USC00502217","1938-09-11",50.00,28.94,0.00,0.00,
"USC00502217","1938-09-12",59.00,37.94,5.00,0.00,
"USC00502217","1938-09-13",57.92,42.98,0.00,0.00,
"USC00502217","1938-09-14",57.02,37.94,3.00,0.00,
"USC00502217","1938-09-15",51.08,41.00,84.00,0.00,
"USC00502217","1938-09-16",42.08,35.96,61.00,0.00,
"USC00502217","1938-09-17",44.96,33.98,8.00,0.00,
"USC00502217","1938-09-18",46.94,28.04,0.00,0.00,
"USC00502217","1938-09-19",44.06,30.92,0.00,0.00,
"USC00502217","1938-09-20",44.96,26.96,0.00,0.00,
"USC00502217","1938-09-21",46.94,19.94,0.00,0.00,
"USC00502217","1938-09-22",44.96,33.98,0.00,0.00,
"USC00502217","1938-09-23",44.06,21.92,5.00,0.00,
"USC00502217","1938-09-24",46.94,32.00,0.00,0.00,
"USC00502217","1938-09-25",44.06,28.94,0.00,0.00,
"USC00502217","1938-09-26",46.04,28.04,23.00,0.00,
"USC00502217","1938-09-27",48.92,33.08,81.00,0.00,
"USC00502217","1938-09-28",39.92,24.98,0.00,0.00,
"USC00502217","1938-09-29",46.94,24.98,0.00,0.00,
"USC00502217","1938-09-30",44.06,21.92,10.00,0.00,
"USC00502217","1938-10-01",44.06,37.94,5.00,0.00,
"USC00502217","1938-10-02",44.96,35.96,61.00,0.00,
"USC00502217","1938-10-03",48.02,41.00,30.00,0.00,
"USC00502217","1938-10-04",51.08,37.94,3.00,0.00,
"USC00502217","1938-10-05",53.06,30.92,,0.00,
"USC00502217","1938-10-06",50.00,33.98,,0.00,
"USC00502217","1938-10-07",41.00,33.08,5.00,0.00,
"USC00502217","1938-10-08",39.02,33.08,3.00,0.00,
"USC00502217","1938-10-09",44.06,30.02,,0.00,
"USC00502217","1938-10-10",39.92,15.98,,0.00,
"USC00502217","1938-10-11",37.94,10.94,,0.00,
"USC00502217","1938-10-12",35.06,10.94,,0.00,
"USC00502217","1938-10-13",35.96,17.06,,0.00,
"USC00502217","1938-10-14",30.92,12.92,,0.00,
"USC00502217","1938-10-15",37.04,26.06,0.00,0.00,
"USC00502217","1938-10-16",39.02,32.00,3.00,0.00,
"USC00502217","1938-10-17",37.04,33.08,,0.00,
"USC00502217","1938-10-18",37.94,32.00,102.00,0.00,
"USC00502217","1938-10-19",37.04,30.02,5.00,8.00,
"USC00502217","1938-10-20",44.96,33.08,175.00,0.00,
"USC00502217","1938-10-21",42.98,33.08,51.00,0.00,
"USC00502217","1938-10-22",39.92,30.92,5.00,0.00,
"USC00502217","1938-10-23",39.92,32.00,30.00,0.00,
"USC00502217","1938-10-24",41.00,24.98,,0.00,
"USC00502217","1938-10-25",35.96,26.96,81.00,51.00,
"USC00502217","1938-10-26",33.98,19.04,,0.00,
"USC00502217","1938-10-27",32.00,17.96,8.00,8.00,
"USC00502217","1938-10-28",33.98,28.04,102.00,127.00,
"USC00502217","1938-10-29",30.92,17.06,,0.00,
"USC00502217","1938-10-30",28.94,15.98,,0.00,
"USC00502217","1938-10-31",28.94,19.04,0.00,0.00,
"USC00502217","1938-11-01",26.06,15.98,0.00,0.00,
"USC00502217","1938-11-02",24.08,-0.04,0.00,0.00,
"USC00502217","1938-11-03",24.98,8.96,3.00,10.00,
"USC00502217","1938-11-04",35.06,3.92,0.00,0.00,
"USC00502217","1938-11-05",14.00,-2.92,0.00,0.00,
"USC00502217","1938-11-06",10.04,-5.08,0.00,0.00,
"USC00502217","1938-11-07",15.08,-5.08,0.00,0.00,
"USC00502217","1938-11-08",12.92,-0.04,0.00,0.00,
"USC00502217","1938-11-09",10.04,-5.08,0.00,0.00,